Preview of NWS' New Version of Forecast
This preview is not operational and should not be used for support decisions.

Regional Weather Roundup (RWR)

Issued by National Weather Service (NWS)

                            
000
ASUS44 KJAN 250010
RWRMS 

MISSISSIPPI HOURLY WEATHER ROUNDUP
NATIONAL WEATHER SERVICE JACKSON MS
700 PM CDT MON JUN 24 2019

NOTE: "FAIR: INDICATES FEW OR NO CLOUDS BELOW 12,000 FEET WITH NO
SIGNIFICANT WEATHER AND/OR OBSTRUCTIONS TO VISIBILITY.

MSZ001>002-007>008-010>013-018>021-025>028-034>036-250100-
NORTHWEST MISSISSIPPI
  
CITY           SKY/WX    TMP DP  RH WIND       PRES   REMARKS
BATESVILLE     FAIR      81  70  69 SW8       29.91R                  
CLARKSDALE     SUNNY     82  72  69 SW9       29.92R                  
CLEVELAND      FAIR      81  70  70 SW7       29.92S                  
GREENWOOD      FAIR      80  70  71 SW6       29.93R                  
6HR MIN TEMP:  80; 6HR MAX TEMP:  84;                                

GREENVILLE       N/A    N/A N/A N/A MISG      29.92S                  
OLIVE BRANCH   MOSUNNY   81  66  61 SW9       29.91R                  
OXFORD         FAIR      81  66  61 SW7       29.94R                  
TUNICA           N/A     81  68  65 SW7       29.92R                  
WINONA         FAIR      80  69  69 SW3       29.93S                  
$$

MSZ003>006-009-014>017-022>024-029>033-037>039-250100-
NORTHEAST MISSISSIPPI
  
CITY           SKY/WX    TMP DP  RH WIND       PRES   REMARKS
ABERDEEN       FAIR      84  84 100 VRB5      29.92R FOG     HX 104   
COLUMBUS AFB   FAIR      86  69  56 SW10      29.90S                  
6HR MIN TEMP:  85; 6HR MAX TEMP:  88;                                

CORINTH        FAIR      81  66  61 SW7       29.90R                  
GOLDN TRIANGLE FAIR      85  67  54 SW10      29.92S                  
STARKVILLE     FAIR      84  64  51 W7        29.94R                  
TUPELO         FAIR      83  67  58 SW6       29.91R                  
6HR MIN TEMP:  83; 6HR MAX TEMP:  87;                                

$$

MSZ040-058-250100-
CENTRAL MISSISSIPPI
  
CITY           SKY/WX    TMP DP  RH WIND       PRES   REMARKS
JACKSON INTL   FAIR      84  69  60 SW8       29.94S                  
6HR MIN TEMP:  81; 6HR MAX TEMP:  87;                                

JACKSON HAWKNS FAIR      84  71  65 W7        29.95R                  
6HR MIN TEMP:  80; 6HR MAX TEMP:  87;                                

MADISON        FAIR      81  70  69 W7        29.94R                  
MERIDIAN KEY   FAIR      84  68  58 SW8       29.94S                  
6HR MIN TEMP:  83; 6HR MAX TEMP:  87;                                

MERIDIAN NAS   PTSUNNY   84  69  60 W6        29.94R                  
6HR MIN TEMP:  82; 6HR MAX TEMP:  87;                                

RAYMOND        FAIR      82  73  74 W6        29.94R                  
VICKSBURG VKS  CLEAR     84  70  61 SW3       29.94R                  
$$

MSZ059>079-250100-
SOUTH MISSISSIPPI
  
CITY           SKY/WX    TMP DP  RH WIND       PRES   REMARKS
BROOKHAVEN     FAIR      82  72  69 E7        29.98R                  
HATTIESBURG    FAIR      81  70  69 W3        29.96S                  
6HR MIN TEMP:  80; 6HR MAX TEMP:  83; 6HR PCP: TRACE;                

LAUREL         PTCLDY    80  70  71 SW3       29.95S                  
MCCOMB         FAIR      81  70  69 SW6       29.96S                  
6HR MIN TEMP:  78; 6HR MAX TEMP:  82; 6HR PCP: TRACE;                

NATCHEZ        FAIR      81  70  69 S6        29.96R                  
PINE BELT      FAIR      80  72  76 CALM      29.97S                  
6HR MIN TEMP:  79; 6HR MAX TEMP:  81; 6HR PCP: TRACE;                

$$

MSZ080>082-250100-
COASTAL MISSISSIPPI
  
CITY           SKY/WX    TMP DP  RH WIND       PRES   REMARKS
BILOXI         FAIR      85  72  65 SW8       29.95S HX  90           
6HR MIN TEMP:  85; 6HR MAX TEMP:  89;                                

PASCAGOULA     FAIR      83  73  72 CALM      29.95F                  
6HR MIN TEMP:  83; 6HR MAX TEMP:  92;                                

GULFPORT       FAIR      84  70  62 SW3       29.94F                  
6HR MIN TEMP:  84; 6HR MAX TEMP:  90;                                

$$

LAZ007>009-015>016-023>026-250100-
NORTHEAST LOUISIANA
  
CITY           SKY/WX    TMP DP  RH WIND       PRES   REMARKS
BASTROP        FAIR      83  69  61 SW3       29.94S                  
TALLULAH/VBURG FAIR      82  71  69 CALM      29.94R                  
6HR MIN TEMP:  79; 6HR MAX TEMP:  85;                                

VIDALIA        FAIR      82  73  73 S6        29.95R                  
$$